TimeCST,TemperatureF,Dew PointF,Humidity,Sea Level PressureIn,VisibilityMPH,Wind Direction,Wind SpeedMPH,Gust SpeedMPH,PrecipitationIn,Events,Conditions,WindDirDegrees,DateUTC
12:15 AM,37.2,37.2,100,30.00,1.0,ESE,4.6,-,N/A,,Overcast,110,2014-02-01 06:15:00
12:35 AM,37.2,37.2,100,29.99,1.0,ESE,4.6,-,N/A,,Overcast,120,2014-02-01 06:35:00
12:55 AM,37.6,37.6,100,29.98,1.8,ESE,5.8,-,N/A,,Overcast,120,2014-02-01 06:55:00
1:15 AM,37.4,37.4,100,29.99,1.5,Calm,Calm,-,N/A,,Overcast,0,2014-02-01 07:15:00
1:35 AM,37.6,37.6,100,29.96,2.0,SE,6.9,-,N/A,,Overcast,130,2014-02-01 07:35:00
1:55 AM,37.9,37.9,100,29.97,2.5,ESE,5.8,-,N/A,,Overcast,120,2014-02-01 07:55:00
2:15 AM,37.9,37.9,100,29.96,3.0,SE,4.6,-,N/A,,Overcast,130,2014-02-01 08:15:00
2:35 AM,38.3,38.3,100,29.96,4.0,ESE,3.5,-,N/A,,Overcast,120,2014-02-01 08:35:00
2:55 AM,38.3,38.3,100,29.96,4.0,SE,4.6,-,N/A,,Overcast,130,2014-02-01 08:55:00
3:15 AM,38.3,38.3,100,29.95,4.0,SE,6.9,-,N/A,,Overcast,130,2014-02-01 09:15:00
3:35 AM,38.5,38.5,100,29.94,4.0,SE,5.8,-,N/A,,Overcast,130,2014-02-01 09:35:00
3:55 AM,38.3,38.3,100,29.93,5.0,Calm,Calm,-,N/A,,Overcast,0,2014-02-01 09:55:00
4:15 AM,38.7,38.5,99,29.94,5.0,Calm,Calm,-,N/A,,Overcast,0,2014-02-01 10:15:00
4:35 AM,38.7,38.5,99,29.92,5.0,SE,4.6,-,N/A,,Overcast,140,2014-02-01 10:35:00
4:55 AM,39.0,38.7,99,29.92,7.0,SE,5.8,-,N/A,,Overcast,140,2014-02-01 10:55:00
5:15 AM,39.2,38.5,97,29.91,5.0,SE,5.8,-,N/A,,Overcast,140,2014-02-01 11:15:00
5:35 AM,40.1,38.7,95,29.91,7.0,SSE,6.9,-,N/A,,Overcast,150,2014-02-01 11:35:00
5:55 AM,40.3,38.8,95,29.90,7.0,SSE,8.1,-,N/A,,Overcast,150,2014-02-01 11:55:00
6:15 AM,40.6,38.7,93,29.88,10.0,SSE,9.2,-,N/A,,Mostly Cloudy,150,2014-02-01 12:15:00
6:35 AM,41.7,38.8,89,29.89,10.0,SSE,10.4,-,N/A,,Overcast,150,2014-02-01 12:35:00
6:55 AM,42.4,38.8,87,29.87,10.0,SSE,15.0,-,N/A,,Overcast,150,2014-02-01 12:55:00
7:15 AM,43.0,38.8,85,29.87,10.0,SSE,16.1,-,N/A,,Mostly Cloudy,160,2014-02-01 13:15:00
7:35 AM,44.6,38.8,80,29.87,10.0,South,16.1,-,N/A,,Scattered Clouds,170,2014-02-01 13:35:00
7:55 AM,44.8,39.2,81,29.89,10.0,South,11.5,-,N/A,,Mostly Cloudy,180,2014-02-01 13:55:00
8:15 AM,46.6,40.1,78,29.88,10.0,South,16.1,20.7,N/A,,Overcast,170,2014-02-01 14:15:00
8:35 AM,48.6,40.6,74,29.87,10.0,South,16.1,-,N/A,,Overcast,170,2014-02-01 14:35:00
8:55 AM,49.5,41.2,73,29.87,10.0,South,17.3,-,N/A,,Overcast,170,2014-02-01 14:55:00
9:15 AM,50.2,41.7,73,29.87,10.0,South,16.1,21.9,N/A,,Overcast,170,2014-02-01 15:15:00
9:35 AM,51.6,41.7,69,29.87,10.0,South,18.4,25.3,N/A,,Overcast,180,2014-02-01 15:35:00
9:55 AM,52.7,42.4,68,29.88,10.0,South,17.3,24.2,N/A,,Overcast,190,2014-02-01 15:55:00
10:15 AM,52.9,42.6,68,29.87,10.0,South,18.4,-,N/A,,Overcast,190,2014-02-01 16:15:00
10:35 AM,53.1,42.4,67,29.88,10.0,South,15.0,19.6,N/A,,Overcast,190,2014-02-01 16:35:00
10:55 AM,54.5,43.2,66,29.87,10.0,South,13.8,-,N/A,,Overcast,180,2014-02-01 16:55:00
11:15 AM,56.3,44.8,65,29.85,10.0,South,19.6,25.3,N/A,,Scattered Clouds,180,2014-02-01 17:15:00
11:35 AM,57.2,45.5,65,29.85,10.0,South,23.0,27.6,N/A,,Clear,190,2014-02-01 17:35:00
11:55 AM,57.0,45.5,65,29.85,10.0,SSW,19.6,27.6,N/A,,Mostly Cloudy,200,2014-02-01 17:55:00
12:15 PM,57.2,46.2,67,29.84,10.0,SSW,18.4,24.2,N/A,,Mostly Cloudy,200,2014-02-01 18:15:00
12:35 PM,57.2,46.4,67,29.84,10.0,SSW,19.6,23.0,N/A,,Overcast,200,2014-02-01 18:35:00
12:55 PM,56.8,46.4,68,29.83,10.0,SSW,13.8,-,N/A,,Mostly Cloudy,200,2014-02-01 18:55:00
1:15 PM,56.7,46.9,70,29.83,10.0,South,15.0,-,N/A,,Overcast,190,2014-02-01 19:15:00
1:35 PM,56.3,47.3,72,29.82,10.0,South,13.8,-,N/A,,Overcast,190,2014-02-01 19:35:00
1:55 PM,54.5,47.1,76,29.82,10.0,South,10.4,-,N/A,,Overcast,190,2014-02-01 19:55:00
2:15 PM,54.5,47.3,77,29.82,10.0,South,9.2,-,N/A,,Overcast,190,2014-02-01 20:15:00
2:35 PM,55.6,48.0,76,29.82,10.0,SSW,8.1,-,N/A,,Overcast,200,2014-02-01 20:35:00
2:55 PM,54.5,49.3,83,29.83,7.0,SW,5.8,-,0.01,Rain,Rain,230,2014-02-01 20:55:00
3:15 PM,52.0,48.9,89,29.84,2.5,West,5.8,-,N/A,,Drizzle,280,2014-02-01 21:15:00
3:35 PM,51.6,50.4,95,29.84,2.0,WNW,5.8,-,0.02,Rain,Light Rain,300,2014-02-01 21:35:00
3:55 PM,50.9,50.0,97,29.86,3.0,WNW,6.9,-,0.03,,Drizzle,300,2014-02-01 21:55:00
4:15 PM,50.0,49.5,98,29.87,1.5,WNW,5.8,-,0.02,,Drizzle,300,2014-02-01 22:15:00
4:35 PM,49.6,49.5,99,29.87,1.0,WNW,6.9,-,0.05,Rain,Rain,300,2014-02-01 22:35:00
4:55 PM,50.2,50.0,99,29.87,0.5,WNW,3.5,-,0.08,Rain,Rain,290,2014-02-01 22:55:00
5:15 PM,50.0,50.0,100,29.88,0.5,WNW,5.8,-,0.04,Rain,Light Rain,300,2014-02-01 23:15:00
5:35 PM,49.3,49.3,100,29.90,1.0,WNW,10.4,-,0.12,Rain,Heavy Rain,300,2014-02-01 23:35:00
5:55 PM,45.7,45.7,100,29.91,4.0,NW,12.7,-,0.17,Rain,Rain,310,2014-02-01 23:55:00
6:15 PM,44.6,44.6,100,29.92,3.0,NW,9.2,-,0.01,Rain,Rain,320,2014-02-02 00:15:00
6:35 PM,43.9,43.9,100,29.92,4.0,NNW,10.4,-,0.07,Rain,Rain,330,2014-02-02 00:35:00
6:55 PM,43.0,43.0,100,29.94,4.0,NW,9.2,-,0.10,Rain,Heavy Rain,310,2014-02-02 00:55:00
7:15 PM,42.4,42.4,100,29.95,5.0,NW,11.5,-,0.03,Rain,Rain,320,2014-02-02 01:15:00
7:35 PM,41.2,41.2,100,29.96,4.0,NW,9.2,-,0.09,Rain,Rain,310,2014-02-02 01:35:00
7:55 PM,40.6,40.6,100,29.96,5.0,NW,4.6,-,0.12,Rain,Rain,320,2014-02-02 01:55:00
8:15 PM,40.1,40.1,100,29.96,7.0,NNW,9.2,-,0.02,Rain,Light Rain,330,2014-02-02 02:15:00
8:35 PM,39.2,39.2,100,29.97,10.0,NW,8.1,-,0.02,Rain,Rain,320,2014-02-02 02:35:00
8:55 PM,38.5,38.5,100,29.99,7.0,NNW,10.4,16.1,0.04,Rain,Rain,330,2014-02-02 02:55:00
9:15 PM,37.8,37.8,100,29.98,5.0,NNW,13.8,-,N/A,Rain,Rain,330,2014-02-02 03:15:00
9:35 PM,37.4,37.4,100,30.00,5.0,NNW,10.4,-,0.03,Rain,Rain,330,2014-02-02 03:35:00
9:55 PM,36.9,36.9,100,30.00,7.0,NNW,10.4,-,0.07,Rain,Rain,330,2014-02-02 03:55:00
10:15 PM,36.5,36.5,100,29.99,7.0,NNW,9.2,-,0.01,Rain,Rain,340,2014-02-02 04:15:00
10:35 PM,36.0,36.0,100,30.00,5.0,NNW,10.4,-,0.04,Rain,Rain,330,2014-02-02 04:35:00
10:55 PM,35.6,35.6,100,30.00,7.0,North,9.2,-,0.05,Rain,Rain,350,2014-02-02 04:55:00
11:15 PM,35.4,35.4,100,29.98,5.0,North,10.4,-,0.03,Rain,Rain,350,2014-02-02 05:15:00
11:35 PM,35.2,35.2,100,30.01,4.0,NW,11.5,-,0.05,Rain,Heavy Rain,320,2014-02-02 05:35:00
11:55 PM,35.1,35.1,100,30.01,4.0,NNW,11.5,-,0.10,Rain,Light Rain,330,2014-02-02 05:55:00